Munising, MI

9:01 AM EDT on May 26, 2018 (GMT -0400)
Munising

Weather History for KP53 - January, 2013

Change the Weather History Date:

Tuesday, January 29, 2013

  Actual Average (KISQ) Record (KISQ)
Temperature  
Mean Temperature 34 °F -  
Max Temperature 37 °F 25 °F 42 °F (1950)
Min Temperature 32 °F 11 °F -15 °F (1951)
Degree Days  
Heating Degree Days 30    
Moisture  
Dew Point 30 °F    
Average Humidity 85    
Maximum Humidity 93    
Minimum Humidity 78    
Precipitation  
Precipitation 0.03 in - - ()
Sea Level Pressure  
Sea Level Pressure 29.62 in    
Wind  
Wind Speed 9 mph (South)    
Max Wind Speed 16 mph    
Max Gust Speed 26 mph    
Averages and records for this station are not official NWS values.
T = Trace of Precipitation, MM = Missing Value Source: NWS Daily Summary

Daily Weather History Graph

Daily Weather History Graph

Search for Another Location

Airport or City:

Astronomy

Jan. 29, 2013 Rise Set
Actual Time 8:13 AM EST 5:46 PM EST
Civil Twilight 7:40 AM EST 6:19 PM EST
Nautical Twilight 7:04 AM EST 6:55 PM EST
Astronomical Twilight 6:29 AM EST 7:31 PM EST
Moon 8:56 PM EST (1/29) 8:57 AM EST (1/29)
Length of Visible Light 10h 38m
Length of Day
9h 33m
Waning Gibbous, 94% of the Moon is Illuminated
Jan 29
Waning Gibbous
Feb 3
Last Quarter
Feb 10
New
Feb 17
First Quarter
Feb 25
Full

Hourly Weather History & Observations

Time (EST) Temp. Windchill Dew Point Humidity Pressure Visibility Wind Dir Wind Speed Gust Speed Precip Events Conditions
12:56 AM 32.0 °F 23.6 °F 27.0 °F 82% 29.89 in - South 10.4 mph - N/A   Unknown
1:56 AM 33.1 °F 25.5 °F 28.0 °F 82% 29.85 in - South 9.2 mph - N/A   Unknown
2:56 AM 33.1 °F 26.1 °F 28.0 °F 82% 29.82 in - SSE 8.1 mph - N/A   Unknown
3:56 AM 33.1 °F 25.5 °F 28.0 °F 82% 29.78 in - South 9.2 mph - N/A   Unknown
4:56 AM 33.1 °F 23.0 °F 28.0 °F 82% 29.75 in - South 15.0 mph 23.0 mph N/A   Unknown
5:56 AM 33.1 °F 26.1 °F 28.9 °F 85% 29.70 in - SSE 8.1 mph 18.4 mph 0.01 in   Unknown
6:56 AM 33.1 °F 26.9 °F 28.0 °F 82% 29.68 in - SSW 6.9 mph - N/A   Unknown
7:56 AM 33.1 °F 25.5 °F 28.9 °F 85% 29.66 in - SSE 9.2 mph - 0.01 in   Unknown
8:56 AM 33.1 °F 23.9 °F 28.9 °F 85% 29.59 in - South 12.7 mph 21.9 mph 0.01 in   Unknown
9:56 AM 34.0 °F 25.5 °F 30.0 °F 85% 29.57 in - South 11.5 mph 20.7 mph N/A   Unknown
10:56 AM 34.0 °F 26.0 °F 30.9 °F 89% 29.55 in - South 10.4 mph 21.9 mph N/A   Unknown
11:56 AM 35.1 °F 27.4 °F 32.0 °F 89% 29.49 in - South 10.4 mph 21.9 mph N/A   Unknown
12:56 PM 36.0 °F 28.5 °F 33.1 °F 89% 29.47 in - South 10.4 mph - N/A   Unknown
1:56 PM 36.0 °F 32.1 °F 34.0 °F 93% 29.49 in - South 4.6 mph - N/A   Unknown
2:56 PM 37.0 °F - 34.0 °F 89% 29.49 in - Calm Calm - N/A   Unknown
3:56 PM 37.9 °F - 35.1 °F 89% 29.51 in - Calm Calm - N/A   Unknown
4:56 PM 36.0 °F 31.1 °F 33.1 °F 89% 29.55 in - NNW 5.8 mph - N/A   Unknown
5:56 PM 36.0 °F 28.0 °F 32.0 °F 86% 29.57 in - NNW 11.5 mph - N/A   Unknown
6:56 PM 35.1 °F 27.9 °F 30.9 °F 85% 29.56 in - North 9.2 mph - N/A   Unknown
7:56 PM 35.1 °F 28.6 °F 30.9 °F 85% 29.57 in - NNW 8.1 mph - N/A   Unknown
8:56 PM 35.1 °F 26.9 °F 30.9 °F 85% 29.57 in - North 11.5 mph 17.3 mph N/A   Unknown
9:56 PM 35.1 °F 26.9 °F 30.0 °F 82% 29.57 in - North 11.5 mph - N/A   Unknown
10:56 PM 35.1 °F 26.9 °F 30.0 °F 82% 29.57 in - NNW 11.5 mph - N/A   Unknown
11:56 PM 35.1 °F 25.2 °F 28.9 °F 78% 29.53 in - North 16.1 mph 26.5 mph N/A   Unknown